Location: İstanbul
(41.0082°N, 28.9784°E)
Time: 01:52:23
(UTC+02:00)

Oscar 11 - Pass Details

Date: 24 October 2021
Orbit: 614 x 623 km, 97.6° (Epoch: 01 December)

Event Time Altitude Azimuth Distance (km) Brightness Sun altitude
Rises 18:31:40 0° 195° (SSW) 2,866 10.9 -4.7°
Reaches altitude 10° 18:34:08 10° 208° (SSW) 1,967 10.3 -5.2°
Maximum altitude 18:37:42 26° 265° (W) 1,229 9.8 -5.9°
Drops below altitude 10° 18:41:18 10° 322° (NW) 1,982 10.1 -6.5°
Sets 18:43:49 0° 335° (NNW) 2,894 10.7 -7.0°
